Tracking 18630 objects as of 27-May-2017
HD Live streaming from Space Station
objects crossing your sky now

AMC-5 (GE-5)

Track AMC-5 (GE-5) now!
AMC-5 (GE-5) is classified as:


NORAD ID: 25516
Int'l Code: 1998-063B
Perigee: 36,047.7 km
Apogee: 36,070.2 km
Inclination: 5.3 °
Period: 1,449.7 minutes
Semi major axis: 42429 km
RCS: 9.3322 m2 (large)
Launch date: October 28, 1998
Source: SOCIETE EUROPEENNE DES SATELLITES (SES)
Launch site: FRENCH GUIANA (FRGUI)

Broadband internet, business television; 16 Ku-band; CONUS
Your satellite tracking list
Your tracking list is empty





NASA's NSSDC Master Catalog

Two Line Element Set (TLE):
1 25516U 98063B   17146.44542300 -.00000263 +00000-0 +00000-0 0  9998
2 25516 005.3474 060.6993 0002645 314.3074 147.4490 00.99333092067961
Source of the keplerian elements: AFSPC